Location: Rumah Apan
(2.7833°N, 113.9500°E)
Time: 23:03:04
(UTC+00:00)

deb Centaur AC-2 - Pass Details

Date: 25 July 2021
Orbit: 585 x 1362 km, 30.0° (Epoch: 22 September)

Event Time Altitude Azimuth Distance (km) Brightness Sun altitude
Rises 11:43:06 0° 233° (SW) 2,792 7.9 -16.0°
Reaches altitude 10° 11:45:20 10° 230° (SW) 1,901 6.9 -16.5°
Maximum altitude 11:49:37 67° 148° (SSE) 664 4.0 -17.5°
Enters shadow 11:51:59 28° 72° (ENE) 1,202 5.1 -18.1°
